Location: Cedar Ridge
(38.0658°N, 120.2769°W)
Time: 22:33:58
(UTC+00:00)

Cosmos 1934 Rocket - Pass Details

Date: 10 September 2024
Orbit: 938 x 997 km, 83.0° (Epoch: 12 October)

Event Time Altitude Azimuth Distance (km) Brightness Sun altitude
Rises 12:43:36 0° 344° (NNW) 3,690 7.0 -11.6°
Reaches altitude 10° 12:46:15 10° 338° (NNW) 2,746 6.3 -11.1°
Maximum altitude 12:52:02 40° 271° (W) 1,427 4.4 -10.0°
Drops below altitude 10° 12:57:51 10° 204° (SSW) 2,754 6.0 -8.8°
Sets 13:00:31 0° 197° (SSW) 3,701 6.7 -8.3°
